STARLINK-5735, 55603

Orbit data source: Space-Track

STARLINK-5735, 55603 is a payload satellite owned by SpaceX/Seattle (US) in LEO that was launched on Sun, 12 Feb 2023 UTC via an FALCON 9 launch vehicle from the Air Force Eastern Test Range (AFETR). Payload-class satellites include a variety of spacecraft equipped with specific instruments for various scientific and technological missions. These include communications satellites like Starlink; space stations such as the ISS; scientific satellites like the Hubble; Earth observation satellites from companies like Planet Labs, Umbra, and HawkEye 360; GPS; miniature CubeSats for education and research; and military/defense satellites.

Loading next visibility...
Identifier
55603, 2023-020AL
Orbit
LEO
Country
Flag of USUS
Related business
Manufacturer
SpaceX/Seattle
Mission
Operational Commercial Communications
Bus & Motor
STARLINK, Unknown motor
Mass
305 kg wet, ~290 kg dry
Launch date (UTC)
2023-02-12 (3 years ago)
Launch vehicle
FALCON 9
Launch site
Air Force Eastern Test Range (AFETR)
Object type
Payload
Rocket body
Debris
Shape & HBR
Box + 1 Pan, 10.1 m
Radar Cross Section
13.562 m², Large (>1 m²)

Expand to show TLE details & history
Last TLE update: 10 hours ago

TLE from 10 hours ago
0 STARLINK-5735
1 55603U 23020AL  26062.29529080  .00000160  00000-0  26889-4 0  9991
2 55603  43.0042  26.7369 0000937 273.1397  86.9338 15.02535755168109
Epoch: 2026-03-03T07:05Z
TLE epoch observation values (Epoch: 2026-03-03T07:05:13.125Z)
Latitude
-0.00001°
Longitude
119.3558°
Altitude
558.824 km
Speed
7.584 km/s
True Right ascension
01h 46m 56s
True Declination
0° 00' 00"
Sunlit
Object was in daylight at epoch
Visualization orbit readout
Latitude
Unknown
Longitude
Unknown
Altitude
Unknown
Speed
Unknown
Apparent Right ascension
Unknown
Apparent Declination
Unknown
Sunlit
N/A
Visualization observer readout
Local Sidereal Time
20:54:21
Azimuth
Unknown
Elevation
Unknown
Doppler factor
Unknown
Orbital elements
Apogee altitude
561.654 km
Perigee altitude
560.353 km
Semi-major axis
6,939.141 km
Eccentricity
0.00009
Inclination
43.0042°
RAAN
26.7369°
Arg. of periapsis
273.1397°
True anomaly
86.94452°
Mean anomaly
86.9338°
Eccentric anomaly
86.93916°
Mean motion
3.75478 °/min
Orbital period
95.88 mins
BSTAR
0.000026889
Loading maneuver chart data...
Computing Atmospheric mass density...

Documentation

Showing up to 5 results
|